This is the latest recevied weather packets stored in our database for station/object OE6ATD-13. If no packets are shown the sender has not sent any weather packets the latest 10 day(s).
| Time | Temp. | Humidity | Pressure | Rain* | Wind** | Luminosity | Snow |
|---|---|---|---|---|---|---|---|
| 1778217923 | 10.56° C | 99% | 1016.3 hPa | 0 mm | - | 158 W/m² | - |
| 1778217319 | 9.44° C | 99% | 1016.3 hPa | 0 mm | - | 152 W/m² | - |
| 1778216730 | 8.89° C | 99% | 1016.2 hPa | 0 mm | - | 154 W/m² | - |
| 1778216126 | 8.33° C | 99% | 1016.2 hPa | 0 mm | - | 61 W/m² | - |
| 1778215521 | 8.33° C | 99% | 1016.2 hPa | 0 mm | - | 40 W/m² | - |
| 1778214917 | 8.33° C | 99% | 1016 hPa | 0 mm | - | 57 W/m² | - |
| 1778214328 | 8.33° C | 99% | 1016 hPa | 0 mm | - | 39 W/m² | - |
| 1778213724 | 7.78° C | 99% | 1016.1 hPa | 0 mm | - | 31 W/m² | - |
| 1778213120 | 8.33° C | 99% | 1015.9 hPa | 0 mm | - | 20 W/m² | - |
| 1778212516 | 7.78° C | 99% | 1015.9 hPa | 0 mm | - | 13 W/m² | - |
| 1778211927 | 7.78° C | 99% | 1015.9 hPa | 0 mm | - | 6 W/m² | - |
| 1778211322 | 7.78° C | 99% | 1015.8 hPa | 0 mm | - | 3 W/m² | - |
| 1778210718 | 7.78° C | 99% | 1015.8 hPa | 0 mm | - | 1 W/m² | - |
| 1778210129 | 7.78° C | 99% | 1015.8 hPa | 0 mm | - | 0 W/m² | - |
| 1778209525 | 8.33° C | 99% | 1015.7 hPa | 0 mm | - | 0 W/m² | - |
| 1778208921 | 8.33° C | 99% | 1015.7 hPa | 0 mm | - | 0 W/m² | - |
| 1778208317 | 8.33° C | 99% | 1015.6 hPa | 0 mm | - | 0 W/m² | - |
| 1778207727 | 8.33° C | 99% | 1015.5 hPa | 0 mm | - | 0 W/m² | - |
| 1778207123 | 8.33° C | 99% | 1015.5 hPa | 0 mm | - | 0 W/m² | - |
| 1778206519 | 8.33° C | 99% | 1015.4 hPa | 0 mm | - | 0 W/m² | - |
| 1778205930 | 8.33° C | 99% | 1015.4 hPa | 0 mm | - | 0 W/m² | - |
| 1778205326 | 8.33° C | 98% | 1015.4 hPa | 0 mm | - | 0 W/m² | - |
| 1778204721 | 7.78° C | 98% | 1015.4 hPa | 0 mm | - | 0 W/m² | - |
| 1778204117 | 8.33° C | 98% | 1015.3 hPa | 0 mm | - | 0 W/m² | - |
| 1778203528 | 8.33° C | 98% | 1015.3 hPa | 0 mm | - | 0 W/m² | - |
* Rain latest hour (hover to see other rain measurements)
** Current wind speed in m/s (hover to see current wind gust speed)